Stations météo

réclame
Mon MeteoGroup
Sveg A, Suède (2327): Température de l'air & dewpoint: 12.11.2018 18:00:00 - 18.11.2018 18:00:00 (CET)Sveg A, Suède (2327): Vitesse du vent & gusts: 12.11.2018 18:00:00 - 18.11.2018 18:00:00 (CET)Sveg A, Suède (2327): Direction du vent: 12.11.2018 18:00:00 - 18.11.2018 18:00:00 (CET)Sveg A, Suède (2327): reduced air pressure: 12.11.2018 18:00:00 - 18.11.2018 18:00:00 (CET)Sveg A, Suède (2327): visibility: 12.11.2018 18:00:00 - 18.11.2018 18:00:00 (CET)Sveg A, Suède (2327): Quantités de précipitations: 12.11.2018 18:00:00 - 18.11.2018 18:00:00 (CET)
Date & Time tt [°C] td [°C] ff [km/h] ff [knt] fx [km/h] fx [knt] dd ppp [hPa] vv [km] rr [mm]
18.11.2018 18:00:00 -6,4 -6,9 1 1 5 3 WNW 1045,0 0,2 -
18.11.2018 17:00:00 -6,6 -7,0 3 2 4 2 WNW 1045,2 0,1 -
18.11.2018 16:00:00 -4,9 -5,2 1 1 5 3 NNW 1045,2 0,3 -
18.11.2018 15:00:00 -3,1 -3,5 2 1 8 4 NNE 1044,9 4,7 -
18.11.2018 14:00:00 -0,9 -1,5 7 4 - - W 1044,9 50 -
18.11.2018 13:00:00 0,5 -0,4 6 4 10 6 SW 1045,5 46 0,0
18.11.2018 12:00:00 -0,4 -1,0 6 4 8 4 WSW 1045,9 33 0,0
18.11.2018 11:00:00 -2,8 -3,3 4 2 6 3 SW 1046,2 34 0,0
18.11.2018 10:00:00 -5,2 -5,7 2 1 8 4 W 1046,8 45 0,0
18.11.2018 09:00:00 -6,6 -7,3 2 1 6 3 SSW 1046,3 43 0,0
18.11.2018 08:00:00 -6,7 -7,2 6 4 8 5 W 1046,1 50 0,0
18.11.2018 07:00:00 -6,2 -6,7 4 2 11 6 W 1045,5 40 0,0
18.11.2018 06:00:00 -4,5 -4,9 3 2 12 7 NW 1045,3 22 0,0
18.11.2018 05:00:00 -1,8 -2,4 8 5 14 8 SW 1045,0 38 0,0
18.11.2018 04:00:00 -1,3 -1,3 9 5 16 8 SW 1044,4 28 0,0
18.11.2018 03:00:00 -2,3 -2,3 5 3 10 6 SW 1044,1 8 0,0
18.11.2018 02:00:00 -3,5 -3,6 6 4 12 6 SW 1044,1 14 0,0
18.11.2018 01:00:00 -2,0 -2,0 5 3 11 6 WSW 1043,7 17 0,0
18.11.2018 00:00:00 -3,5 -3,8 3 1 14 7 ESE 1043,7 21 0,0
17.11.2018 23:00:00 -5,0 -5,4 5 3 13 7 NW 1043,3 28 0,0
17.11.2018 22:00:00 -4,3 -4,4 3 2 12 7 N 1043,0 1,2 0,0
17.11.2018 21:00:00 -5,1 -5,8 2 1 6 3 WNW 1042,3 21 0,0
17.11.2018 20:00:00 -2,8 -2,8 2 1 12 7 WNW 1041,7 6 0,0
17.11.2018 19:00:00 -2,8 -2,8 4 2 12 6 E 1041,3 4,6 0,0
17.11.2018 18:00:00 -2,3 -2,3 4 2 8 4 WNW 1041,0 1,0 0,0
17.11.2018 17:00:00 -1,6 -1,6 3 2 11 6 SSE 1040,6 10 0,0
17.11.2018 16:00:00 -1,2 -1,6 5 3 8 5 W 1040,4 6 0,0
17.11.2018 15:00:00 1,9 1,0 7 4 14 8 W 1039,8 50 0,0
17.11.2018 14:00:00 3,4 1,6 10 5 16 9 WSW 1039,7 50 0,0
17.11.2018 13:00:00 3,9 2,4 10 5 15 8 W 1040,0 50 0,0
17.11.2018 12:00:00 1,9 1,5 8 4 11 6 WNW 1040,5 42 0,0
17.11.2018 11:00:00 0,4 0,3 3 2 13 7 WNW 1040,4 20 0,0
17.11.2018 10:00:00 -1,0 -1,1 3 1 10 5 W 1040,3 18 0,0
17.11.2018 09:00:00 -2,1 -2,1 4 2 11 6 NW 1040,1 16 0,0
17.11.2018 08:00:00 -1,8 -1,8 6 3 13 7 SSE 1039,7 30 0,0
17.11.2018 07:00:00 -2,5 -2,6 5 3 10 5 NW 1038,6 15 0,0
17.11.2018 06:00:00 -2,1 -2,1 2 1 11 6 NNW 1037,8 9 0,0
17.11.2018 05:00:00 -1,5 -1,6 7 4 13 7 NNE 1037,7 11 0,0
17.11.2018 04:00:00 -0,7 -1,1 3 2 14 8 N 1037,8 7 0,0
17.11.2018 03:00:00 2,2 1,5 9 5 16 8 W 1037,3 37 0,0
17.11.2018 02:00:00 2,0 1,6 9 5 14 8 NW 1036,8 30 0,0
17.11.2018 01:00:00 1,0 0,7 3 2 10 5 WNW 1036,4 15 0,0
17.11.2018 00:00:00 3,3 2,3 12 6 18 10 W 1035,3 27 0,0
16.11.2018 23:00:00 0,1 0,0 6 3 9 5 WNW 1035,2 18 0,0
16.11.2018 22:00:00 1,9 1,5 5 3 12 7 NW 1034,8 39 0,0
16.11.2018 21:00:00 0,9 0,3 6 3 18 10 NW 1034,3 20 0,0
16.11.2018 20:00:00 4,1 2,3 12 6 22 12 W 1033,0 50 0,0
16.11.2018 19:00:00 4,6 2,5 13 7 24 13 W 1032,4 50 0,0
16.11.2018 18:00:00 5,0 2,7 18 10 30 16 W 1031,3 50 0,0
16.11.2018 17:00:00 5,0 2,7 18 10 24 13 WSW 1031,0 50 0,0
16.11.2018 16:00:00 5,7 2,9 9 5 28 15 W 1030,7 50 0,0
16.11.2018 15:00:00 5,9 2,7 12 7 26 14 W 1030,3 50 0,0
16.11.2018 14:00:00 6,3 3,1 13 7 26 14 W 1029,9 50 0,0
16.11.2018 13:00:00 6,8 3,2 14 8 31 17 WSW 1029,5 40 0,0
16.11.2018 12:00:00 6,9 3,3 14 7 30 16 WSW 1029,1 50 0,0
16.11.2018 11:00:00 5,8 3,0 13 7 22 12 W 1029,1 50 0,0
16.11.2018 10:00:00 5,8 2,6 9 5 26 14 WSW 1028,2 50 0,0
16.11.2018 09:00:00 6,0 2,8 10 5 18 10 SW 1027,7 50 0,0
16.11.2018 08:00:00 6,1 2,6 6 3 22 12 SW 1027,3 50 0,0
16.11.2018 07:00:00 5,6 2,2 11 6 26 14 W 1026,7 49 0,0
16.11.2018 06:00:00 5,9 2,4 6 3 15 8 SW 1025,9 46 0,0
16.11.2018 05:00:00 4,7 2,6 4 2 17 9 W 1026,1 50 0,0
16.11.2018 04:00:00 6,2 2,6 13 7 35 19 WSW 1025,7 50 0,0
16.11.2018 03:00:00 6,9 3,0 16 9 27 15 WSW 1025,2 47 0,0
16.11.2018 02:00:00 7,6 3,8 10 6 22 12 SW 1025,2 50 0,0
16.11.2018 01:00:00 7,9 3,9 12 7 24 13 WSW 1024,9 50 0,0
16.11.2018 00:00:00 8,6 6,6 3 2 16 8 SSE 1024,6 50 0,0
15.11.2018 23:00:00 8,8 6,8 8 5 18 10 WSW 1024,8 50 0,0
15.11.2018 22:00:00 8,4 6,7 3 2 11 6 S 1024,5 47 0,0
15.11.2018 21:00:00 8,4 6,5 3 1 19 10 N 1024,4 50 0,0
15.11.2018 20:00:00 7,4 6,0 7 4 16 9 WNW 1024,2 50 0,0
15.11.2018 19:00:00 7,7 6,0 11 6 18 10 WSW 1023,9 50 0,0
15.11.2018 18:00:00 7,4 5,5 11 6 22 12 WSW 1023,4 50 0,0
15.11.2018 17:00:00 6,7 5,0 8 4 14 8 WNW 1023,4 50 0,0
15.11.2018 16:00:00 7,4 5,7 2 1 22 12 ENE 1022,7 50 0,0
15.11.2018 15:00:00 8,2 5,8 11 6 27 15 W 1022,2 50 0,0
15.11.2018 14:00:00 8,7 6,0 13 7 27 15 WSW 1021,6 50 0,0
15.11.2018 13:00:00 8,7 6,0 17 9 29 15 W 1021,3 50 0,0
15.11.2018 12:00:00 8,9 5,8 13 7 27 15 WSW 1020,6 50 0,0
15.11.2018 11:00:00 7,9 5,2 13 7 27 15 WSW 1020,2 50 0,0
15.11.2018 10:00:00 7,6 4,7 13 7 23 12 WSW 1019,7 50 0,0
15.11.2018 09:00:00 7,1 4,6 5 3 24 13 SW 1019,3 50 0,0
15.11.2018 08:00:00 7,3 5,1 10 6 35 19 W 1018,2 49 0,0
15.11.2018 07:00:00 7,4 5,2 14 8 34 19 W 1017,6 50 0,0
15.11.2018 06:00:00 7,4 5,2 16 9 36 19 WSW 1017,1 50 0,0
15.11.2018 05:00:00 6,6 4,6 10 6 27 15 SW 1017,2 50 0,0
15.11.2018 04:00:00 2,9 2,5 5 3 12 7 SSE 1017,9 50 0,0
15.11.2018 03:00:00 1,2 0,6 9 5 11 6 E 1018,5 50 0,0
15.11.2018 02:00:00 1,6 0,7 7 4 11 6 E 1019,0 50 0,0
15.11.2018 01:00:00 1,9 0,4 2 1 8 5 E 1019,3 50 0,0
15.11.2018 00:00:00 2,3 0,5 6 3 15 8 WSW 1019,4 49 0,0
14.11.2018 23:00:00 2,3 0,4 11 6 29 15 WSW 1019,6 50 0,0
14.11.2018 22:00:00 2,3 0,5 9 5 24 13 SSW 1019,5 50 0,0
14.11.2018 21:00:00 1,4 0,7 10 5 19 11 SSW 1019,6 50 0,0
14.11.2018 20:00:00 -1,6 -1,9 8 4 13 7 SE 1019,7 49 0,0
14.11.2018 19:00:00 -4,6 -5,1 3 2 7 4 N 1019,9 39 0,0
14.11.2018 18:00:00 -4,4 -4,7 2 1 6 4 NNW 1019,7 2,9 0,0
14.11.2018 17:00:00 -3,4 -3,5 3 2 5 3 ENE 1019,9 49 0,0
14.11.2018 16:00:00 -2,8 -3,1 4 2 5 3 ENE 1019,7 32 0,0
14.11.2018 15:00:00 -0,9 -1,5 1 1 8 4 ENE 1019,4 50 0,0
14.11.2018 14:00:00 2,2 0,1 1 1 6 3 N 1019,3 50 0,0
14.11.2018 13:00:00 2,7 0,6 1 1 12 7 NE 1018,8 46 0,0
14.11.2018 12:00:00 1,6 0,4 5 3 10 6 WSW 1019,4 38 0,0
14.11.2018 11:00:00 -0,4 -1,1 3 1 7 4 N 1019,5 50 0,0
14.11.2018 10:00:00 -2,4 -2,8 3 2 5 3 W 1018,8 50 0,0
14.11.2018 09:00:00 -4,6 -5,1 3 2 7 4 NW 1018,6 50 0,0
14.11.2018 08:00:00 -4,8 -5,2 5 3 8 4 W 1018,1 33 0,0
14.11.2018 07:00:00 -3,5 -3,6 5 3 6 3 W 1017,0 50 0,0
14.11.2018 06:00:00 -2,5 -2,6 2 1 9 5 WSW 1016,5 49 0,0
14.11.2018 05:00:00 -2,4 -2,5 2 1 8 4 W 1016,1 50 0,0
14.11.2018 04:00:00 -1,1 -1,5 3 2 9 5 W 1015,3 50 0,0
14.11.2018 03:00:00 1,5 0,2 7 4 24 13 W 1014,6 50 0,0
14.11.2018 02:00:00 2,9 1,1 12 6 16 9 W 1013,9 36 0,0
14.11.2018 01:00:00 3,5 1,5 10 6 15 8 W 1013,2 50 0,0
14.11.2018 00:00:00 2,6 1,0 8 5 16 9 NW 1013,3 50 0,0
13.11.2018 23:00:00 3,9 1,4 11 6 25 14 W 1012,8 46 0,0
13.11.2018 22:00:00 2,0 1,7 8 4 16 9 WSW 1012,6 35 0,0
13.11.2018 21:00:00 -0,8 -1,1 6 3 13 7 E 1012,7 50 0,0
13.11.2018 20:00:00 1,2 0,3 10 6 14 8 W 1012,1 50 0,0
13.11.2018 19:00:00 1,9 0,4 11 6 18 10 W 1011,8 50 0,0
13.11.2018 18:00:00 3,8 1,7 8 4 20 11 W 1011,2 50 0,0
13.11.2018 17:00:00 2,5 1,2 4 2 15 8 WNW 1011,2 50 0,0
13.11.2018 16:00:00 3,7 2,1 10 5 20 11 W 1010,8 34 0,0
13.11.2018 15:00:00 4,2 2,2 12 6 20 11 W 1010,6 50 0,0
13.11.2018 14:00:00 3,2 2,0 10 6 14 7 W 1010,4 50 0,0
13.11.2018 13:00:00 1,6 1,2 2 1 6 3 NNE 1010,8 50 0,0
13.11.2018 12:00:00 1,1 0,8 3 1 7 4 WNW 1010,9 45 0,0
13.11.2018 11:00:00 2,2 1,3 2 1 8 4 E 1010,8 48 0,0
13.11.2018 10:00:00 -0,7 -0,8 2 1 10 5 N 1011,1 42 0,0
13.11.2018 09:00:00 -1,6 -1,6 5 3 6 4 SE 1011,0 16 0,0
13.11.2018 08:00:00 -1,8 -1,9 2 1 4 2 SE 1010,7 19 0,0
13.11.2018 07:00:00 -1,5 -1,6 2 1 6 4 N 1010,8 17 0,0
13.11.2018 06:00:00 -0,1 -0,2 3 2 11 6 ESE 1010,4 23 0,0
13.11.2018 05:00:00 1,7 0,8 8 4 16 9 W 1010,1 48 0,0
13.11.2018 04:00:00 2,9 1,4 12 6 20 11 WSW 1010,1 50 0,0
13.11.2018 03:00:00 3,2 1,6 10 5 16 9 W 1010,3 50 0,0
13.11.2018 02:00:00 3,6 2,4 6 3 16 8 WSW 1010,2 48 0,0
13.11.2018 01:00:00 3,9 2,1 9 5 14 8 WSW 1010,0 49 0,0
13.11.2018 00:00:00 3,9 2,6 10 5 18 10 W 1010,0 50 0,0
12.11.2018 23:00:00 3,2 2,3 4 2 14 8 E 1010,2 50 0,0
12.11.2018 22:00:00 5,7 3,4 7 4 24 13 WSW 1009,3 50 0,0
12.11.2018 21:00:00 6,8 3,9 13 7 31 17 SW 1009,0 50 0,0
12.11.2018 20:00:00 7,1 4,2 18 10 33 18 SW 1008,4 50 0,0
12.11.2018 19:00:00 5,7 3,7 4 2 14 7 SSE 1008,4 50 0,0
12.11.2018 18:00:00 6,2 4,4 9 5 14 8 S 1008,5 50 0,0

tt = Température de l'air
td = dewpoint
ff = Vitesse du vent
fx = gusts
dd = Direction du vent
ppp = reduced air pressure
vv = visibility
rr = Quantités de précipitations

stations d'obs. à proximité